Tracking 27122 objects as of 25-Mar-2023
HD Live streaming from Space Station
objects crossing your sky now

OPS 7033 (VELA 11)

Track OPS 7033 (VELA 11) now!
OPS 7033 (VELA 11) is classified as:


NORAD ID: 4368
Int'l Code: 1970-027B
Perigee: 34,234.7 km
Apogee: 188,474.2 km
Inclination: 87.6 °
Period: 6,699.8 minutes
Semi major axis: 117725 km
RCS: Unknown
Launch date: April 8, 1970
Source: United States (US)
Launch site: AIR FORCE EASTERN TEST RANGE (AFETR)
Your satellite tracking list
Your tracking list is empty




NASA's NSSDC Master Catalog

Two Line Element Set (TLE):
1 04368U 70027B   23057.29412662  .00000064  00000-0  00000-0 0  9996
2 04368  87.6180  32.8003 6550816 107.2512   0.0115  0.21493020 10029
Source of the keplerian elements: AFSPC